Find Starlink 31500

NORAD ID: 59305 Int'l Des: 2024-056 Owner: SPXS Country: US Constellation: starlink operational
LEOCIRCULAR

Live Position

Loading 3D Globe...

About Starlink 31500

Description loading...

Upcoming Passes

Passes for default location (London). Set your location on the main map for personalized predictions.

Altitude History

Loading altitude history...

Two-Line Element Set

1 59305U 24056K 26133.29162542 -.00001186 00000-0 -33581-4 0 9997
2 59305 42.9994 225.9348 0000528 287.2289 72.8505 15.27580673121035
Epoch: May 13, 2026 • Age: 15 hours

Current Status

Altitude 485.6 km
Velocity 7.63 km/s
Sub-Earth Point 38.76°N, 147.66°E
Launch Date Mar 24, 2024
Age 2.1 years
Type internet

Technical Details

Classification Payload
Mass 730.00 kg
Dry Mass 700.00 kg
Total Mass 730.00 kg
Length 0.30 m
Diameter 4.10 m
Span 29.00 m
Shape Box + pan
Manufacturer SPXS
Bus Type Starlink V2M
Phase Status In Orbit
Owner/State SPXS/US

Most Searched